www.pogodaiklimat.ru

Погода и климат >> Архив погоды >> Казахстан >> Тобол


ПОГОДА в Тоболе

  • Прогноз погоды в Тоболе
  • Монитор погоды в Тоболе

АРХИВ ПОГОДЫ в Тоболе

Время (UTC), дата Ветер
(напр.,м/с)
 
Видим.   Явления Облачность Т
(С)
Тd
(С)
f
(%)
Тe
(С)
Тes
(С)
Комфортность P
(гПа)
Po
(гПа)
Тmin
(С)
Tmax
(С)
R
(мм)
R24
(мм)
S
(см)
00 11.08 Ю 2 н/о ясно +18.1 +5.9 45 +19 +19 1009.5 985.2
03 11.08 ЮВ 2 10 км 9/0
[Ac lent Ci sp]
+19.8 +5.5 39 +21 +23 комфорт 1008.8 984.7
06 11.08 Ю 4 10 км 9/0
[Ci sp]
+32.1 +3.1 16 +29 +30 жарко 1008.4 985.3 +17.9
09 11.08 Ю 4 10 км 8/3 1500 м
[Cu hum Ac lent Cc]
+33.9 +3.6 15 +31 +34 жарко 1005.6 982.7
12 11.08 Ю 5 10 км 9/3 1500 м
[Cu hum Ac cast Cc]
+33.6 +4.1 16 +31 +32 жарко 1003.3 980.4
15 11.08 ЮВ 3 10 км 8/0
[Ac cast Ci ing]
+30.4 +2.6 17 +28 +28 жарко 1003.1 980.0 +34.4
18 11.08 СВ 2 н/о 10/0
[Ac und]
+24.0 +5.1 29 +24 +24 комфорт 1002.7 979.0 +34.4
21 11.08 ЮВ 1 н/о 10/0
[Ac und]
+22.4 +7.8 39 +23 +23 комфорт 1003.7 980.0
00 12.08 С 2 н/о 10/5 600 м
[Cu Sc Ac und]
+20.3 +12.5 61 +23 +23 комфорт 999.9 976.0
03 12.08 СЗ 2 10 км 10/3 600 м
[Cu med, cong Ac und]
+20.8 +12.9 61 +24 +24 комфорт 999.5 975.7
06 12.08 СВ 5 10 км 10/0
[Ac und]
+23.9 +10.6 43 +25 +27 комфорт 996.9 973.3 +20.1
09 12.08 С 1 10 км 10/0
[Ac und]
+27.2 +8.1 30 +27 +27 жарко 996.5 973.3
12 12.08 З 4 10 км 9/3 1500 м
[Cu med, cong Ac cast]
+27.5 +8.8 31 +28 +28 жарко 994.7 971.6
15 12.08 СЗ 4 10 км в посл. час гроза {ливн. осадки} 9/4 600 м
[Cb calv Ac cast Ci ing]
+18.7 +11.7 64 +19 +19 995.4 971.6 +29.1
18 12.08 Ю 1 н/о {гроза, ливн. осадки} 8/3 600 м
[Cu med, cong Ac trans Ci fib]
+18.2 +11.4 64 +20 +20 995.9 972.0 +29.1 0.3
21 12.08 ЮЗ 1 н/о 8/0
[Ac As]
+16.0 +11.6 75 +17 +17 996.0 972.0
00 13.08 ЮЗ 1 н/о дымка 4/4 600 м
[Sc]
+12.5 +10.4 87 +12 +12 995.9 971.6
03 13.08 ЮЗ 4 4000 м дымка 5/3 600 м
[Sc Ac cast]
+12.5 +9.9 84 +11 +12 996.3 972.0
06 13.08 ЮЗ 4 10 км 8/0
[Ac lent Cc]
+18.2 +11.3 64 +18 +21 997.2 973.3 +12.2
09 13.08 ЮЗ 4 50 км 6/0
[Ac cast Ci sp]
+24.1 +10.0 41 +25 +29 комфорт 998.1 974.7
12 13.08 Ю 3 50 км 4/0
[Ac cast Ci fib]
+25.1 +7.8 33 +25 +28 комфорт 996.9 973.4
15 13.08 Ю 4 10 км 8/0
[Ac cast]
+20.5 +7.1 42 +22 +22 комфорт 999.8 976.0 +26.1
18 13.08 ЮЗ 2 н/о 3/0
[Ac cast]
+14.8 +8.5 66 +15 +15 1001.5 977.2 +26.1
21 13.08 ЮЗ 2 н/о ясно +12.0 +7.7 75 +11 +11 1003.3 978.7
00 14.08 Ю 1 н/о ясно +9.3 +6.5 83 +9 +9 1004.6 979.7
03 14.08 ЮЗ 1 50 км 3/0
[Ci fib]
+12.7 +8.2 74 +13 +16 1006.0 981.4
06 14.08 ЮЗ 1 10 км 4/0
[Ac trans Ci fib]
+19.4 +8.2 48 +21 +32 комфорт 1007.0 982.8 +8.7
09 14.08 С 2 10 км 7 баллов +23.1 +7.2 36 +24 +28 комфорт 1007.8 984.0
12 14.08 СВ 2 10 км 9/9 1500 м
[Cu med, cong]
+24.3 +7.1 33 +24 +25 комфорт 1006.8 983.0
15 14.08 С 2 10 км {ливн. осадки} 9/8 1000 м
[Cu med, cong Ci sp]
+22.4 +8.0 40 +24 +24 комфорт 1008.3 984.3 +25.4
18 14.08 С 2 н/о {ливн. осадки} 8/8 600 м
[Cu Sc]
+18.3 +9.7 57 +19 +19 1009.9 985.6 +25.4 0.0
21 14.08 З 1 н/о 9/8 600 м
[Sc Ac trans]
+15.1 +9.2 68 +16 +16 1011.2 986.7
00 15.08 СЗ 2 н/о дымка 3/3 600 м
[Sc]
+10.8 +8.5 86 +9 +9 1011.2 986.3
03 15.08 СЗ 3 2000 м в посл. час туман 8/4 600 м
[Sc Ac trans]
+13.7 +13.3 97 +12 +13 1012.4 987.6
06 15.08 С 5 10 км {туман} 8/3 600 м
[Cu med, cong Cc]
+22.3 +13.3 57 +25 +29 комфорт 1012.0 987.9 +10.3
09 15.08 С 6 10 км 8/6 1000 м
[Cu med, cong Ci sp]
+24.6 +9.7 39 +25 +27 комфорт 1013.0 989.3
12 15.08 С 6 10 км 6/4 1500 м
[Cu med, cong Ci fib]
+25.2 +6.7 31 +25 +26 комфорт 1011.9 988.1
15 15.08 СЗ 4 10 км 4/0
[Ac lent]
+22.6 +5.9 34 +23 +23 комфорт 1013.2 989.3 +25.4
18 15.08 СЗ 3 н/о 4/0
[Ac trans]
+13.9 +5.9 58 +13 +13 1014.9 990.1 +25.4
21 15.08 СЗ 2 н/о ясно +10.9 +5.4 69 +10 +10 1017.0 992.0
00 16.08 СЗ 2 н/о 3/0
[Ac lent]
+10.1 +6.2 77 +9 +9 1016.5 991.4
03 16.08 СЗ 3 10 км 4/0
[Ci]
+14.5 +8.4 67 +14 +16 1016.9 992.2
06 16.08 С 4 10 км 8/3 1000 м
[Cu med, cong Ci fib]
+23.9 +10.2 42 +25 +29 комфорт 1016.1 992.2 +9.8
09 16.08 С 3 10 км 8/6 1500 м
[Cu med, cong Cc]
+26.0 +8.5 33 +26 +29 жарко 1015.7 992.0
12 16.08 С 4 10 км 8/3 1500 м
[Cu hum Ac cast Ci sp]
+27.4 +7.7 29 +27 +28 жарко 1014.9 991.2
15 16.08 СВ 2 10 км 3/0
[Ci fib]
+24.8 +8.7 36 +25 +25 комфорт 1015.8 992.0 +27.5
18 16.08 СВ 1 н/о ясно +17.0 +8.6 58 +18 +18 1017.1 992.5 +27.5
21 16.08 СЗ 1 н/о ясно +13.9 +7.4 65 +14 +14 1018.1 993.3
00 17.08 З 1 н/о 3/0
[Ac lent]
+12.9 +7.4 69 +13 +13 1018.5 993.5
03 17.08 З 1 10 км 8/0
[Ci sp]
+15.9 +8.4 61 +17 +19 1018.7 994.0
06 17.08 С 2 10 км 9/0
[Ci sp]
+27.0 +9.5 33 +27 +36 жарко 1018.0 994.2 +12.6
09 17.08 СВ 4 10 км 10 баллов +29.9 +9.9 29 +30 +30 жарко 1018.2 994.7
12 17.08 СВ 3 10 км 10/3 1500 м
[Cu hum Ci sp]
+30.5 +9.9 28 +30 +32 жарко 1016.3 992.8
15 17.08 СВ 1 10 км 9 баллов +27.7 +11.3 36 +29 +29 жарко 1018.3 994.7 +30.9
18 17.08 Ю 2 н/о 8/0
[Ac trans Ci sp]
+23.5 +10.7 44 +25 +25 комфорт 1017.7 993.7 +30.9

 

Местоположение метеостанции Тобол (Костанайская область, Казахстан): широта 52.68 долгота 62.60 высота над уровнем моря 208 м.

В архиве по умолчанию представлена погода в Тоболе за последнюю неделю. Архивные данные за месяц целиком и за предыдущие месяцы, начиная с января 2011 года, Вы можете получить, выбрав интересующий диапазон дат из раскрывающегося списка и нажав кнопку "Ввод!".


*Определитесь, кто Вы:
робот инопланетянин человек

Внимание! Время в таблицах - всемирное. Для получения местного времени необходимо прибавить поправку, которая равна 5 ч.

Смотрите также архив погоды в соседних городах и на ближайших метеорологических станциях:

Погода в Рудном (Костанайская область, Казахстан) (48 км)
Погода в Костанае 2 (Костанайская область, Казахстан) (89 км)
Погода в Костанае (Костанайская область, Казахстан) (91 км)
Погода в Аршалынском (Акмолинская область, Казахстан) (94 км)
Погода в Житикаре (Костанайская область, Казахстан) (96 км)
Погода в Диевской (Костанайская область, Казахстан) (106 км)
Погода в Михайловке (Костанайская область, Казахстан) (119 км)
Погода в Карабалыке (Костанайская область, Казахстан) (127 км)
Погода в Карталы (Челябинская область, Россия) (136 км)
Погода в Кусмурыне (Костанайская область, Казахстан) (142 км)

Пояснения к столбцам:

Ветер - указаны скорость ветра в м/с - средняя за 10 мин, порывы в срок и между сроками (в фигурных скобках) и направление, откуда дует ветер: С - северный, СВ - северо-восточный, В - восточный, ЮВ - юго-восточный, Ю - южный, ЮЗ - юго-западный, З - западный, СЗ - северо-западный.
Видимость - горизонтальная дальность видимости в метрах или километрах. При видимости от 1 до 10 км при отсутствии осадков обычно наблюдается дымка, при ухудшении видимости до 1 км и менее - туман. В сухую погоду видимость может ухудшаться дымом, пылью или мглою.
Явления - указаны атмосферные явления, наблюдавшиеся в срок или в последний час перед сроком; фигурными скобками обозначены явления, наблюдавшиеся между сроками (за 1-3 часа до срока); квадратными скобками обозначены град или гололедные отложения с указанием их диаметра в мм.
Облачность - указаны через наклонную черту общая и нижняя облачность в баллах и высота нижней границы облаков в метрах; квадратными скобками обозначены формы облаков: Ci - перистые, Cs - перисто-слоистые, Cc - перисто-кучевые, Ac - высококучевые, As - высокослоистые, Sc - слоисто-кучевые, Ns - слоисто-дождевые, Cu - кучевые, Cb - кучево-дождевые. Подробнее классификацию облаков см. в Атласе облаков (PDF).
T - Температура воздуха - температура, измеренная на высоте 2 м над землей.
Td - Температура точки росы - температура, при понижении до которой содержащийся в воздухе водяной пар достигнет насыщения.
f - Относительная влажность воздуха - влажноcть воздуха, измеренная на высоте 2 м над землей.
Te - Эффективная температура - температура, которую ощущает одетый по сезону человек в тени. Характеристика душности погоды. При расчете учитывается влияние влажности воздуха и скорости ветра на теплоощущения человека.
Tes - Эффективная температура на солнце - температура, которую ощущает человек, с поправкой на солнечный нагрев. Характеристика знойности погоды. Зависит от высоты солнца над горизонтом, облачности и скорости ветра. Ночью, в пасмурную погоду, а также при ветре 12 м/с и более поправка равна нулю.
P - Атмосферное давление - приведенное к уровню моря атмосферное давление.
Po - Атмосферное давление - измеренное на уровне метеостанции атмосферное давление.
Tmin - Минимальная температура - минимум температуры воздуха на высоте 2 м над землей.
Tmax - Максимальная температура - максимум температуры воздуха на высоте 2 м над землей.
R - Количество осадков - Количество выпавших осадков за период времени, мм. При наведении курсора мыши на число - период времени, за который выпало указанное количество осадков.
R24 - Количество осадков - Количество выпавших осадков за 24 часа, мм.
S - Снежный покров - Высота снежного покрова, см. При наведении курсора мыши на число - состояние снежного покрова и степень покрытия местности в баллах.